AirNav   Pilot Hours Calculator
 
 1322 users online  

03OR Powwatka Ridge Airport
Troy, Oregon, USA

GOING TO TROY?


FAA INFORMATION EFFECTIVE 02 JANUARY 2020

Location

FAA Identifier: 03OR
Lat/Long: 45-51-19.5190N 117-29-03.6390W
45-51.325317N 117-29.060650W
45.8554219,-117.4843442
(estimated)
Elevation: 3340 ft. / 1018 m (estimated)
Variation: 18E (1985)
From city: 5 miles S of TROY, OR
Time zone: UTC -8 (UTC -7 during Daylight Saving Time)
Zip code: 97885

Airport Operations

Airport use: Private use. Permission required prior to landing
Activation date: 07/1980
Control tower: no
ARTCC: SEATTLE CENTER
FSS: MC MINNVILLE FLIGHT SERVICE STATION
Attendance: UNATNDD
Wind indicator: yes
Segmented circle: no

Nearby radio navigation aids

VOR radial/distance  VOR name  Freq  Var
ALWr092/36.5WALLA WALLA VOR/DME116.4020E

 
NDB name  Hdg/Dist  Freq  Var  ID
LA GRANDE016/36.729617ELGD .-.. --. -..

Airport Services

Runway Information

Runway 7/25

Dimensions: 2950 x 60 ft. / 899 x 18 m
Surface: concrete
RUNWAY 7  RUNWAY 25
Traffic pattern: leftleft

Airport Ownership and Management from official FAA records

Ownership: Privately-owned
Owner: MARK S. HEMSTREET
11600 SW BARNES ROAD
PORTLAND, OR 97225
Phone 503-641-6565

Additional Remarks

OWNER DESIRES ARPT NOT BE CHARTED.
FOR CD CTC SEATTLE ARTCC AT 253-351-3694.

Instrument Procedures

There are no published instrument procedures at 03OR.

Some nearby airports with instrument procedures:

KALW - Walla Walla Regional Airport (36 nm NW)
KLWS - Lewiston-Nez Perce County Airport (37 nm NE)
KLGD - La Grande/Union County Airport (40 nm SW)
KPUW - Pullman/Moscow Regional Airport (55 nm N)
KGIC - Idaho County Airport (57 nm E)
 
Loc | Ops | Rwys | IFR | FBO | Links
Com | Nav | Svcs | Stats | Notes
Area around 03OR (Powwatka Ridge Airport)
 
Road maps at: MapQuest Bing Google
 
Aerial photo
WARNING: Photo may not be current or correct
Aerial photo of 03OR (Powwatka Ridge Airport)
Do you have a better or more recent aerial photo of Powwatka Ridge Airport that you would like to share? If so, please send us your photo.

 
Sectional chart

 
Airport distance calculator
Flying to Powwatka Ridge Airport? Find the distance to fly.

From to 03OR

Sunrise and sunset
Times for 25-Jan-2020
 Local
(UTC-8)
 Zulu
(UTC)
Morning civil twilight06:4814:48
Sunrise07:2115:21
Sunset16:4400:44
Evening civil twilight17:1701:17

Current date and time
Zulu (UTC)  26-Jan-2020 01:06:01
Local (UTC-8)  25-Jan-2020 17:06:01
 
METAR
KLWS 
36nm NE 
260056Z 06005KT 10SM FEW050 08/04 A3005 RMK AO2 SLP184 T00780039 $
KALW 
36nm NW 
260053Z 00000KT 10SM CLR 10/04 A3004 RMK AO2 SLP176 T01000039
KLGD 
41nm SW 
260056Z AUTO 18016G22KT 10SM CLR 05/02 A3009 RMK AO2 SLP203 T00500017
KMEH 
44nm SW 
260056Z AUTO 00000KT 10SM CLR 02/M01 A3004 RMK AO2 SLP192 T00221006
TAF
KLWS 
36nm NE 
251730Z 2518/2618 VRB04KT 6SM -RA BR OVC040 FM252100 13005KT P6SM BKN035 FM260000 10005KT P6SM BKN100 FM261200 11005KT 6SM -RA BR OVC040
KALW 
36nm NW 
251721Z 2518/2618 15011KT P6SM BKN060 OVC080 FM252000 20007KT P6SM SCT050 BKN150 FM260300 12006KT P6SM BKN100 FM260900 19006KT 5SM -RA BR OVC015
NOTAMs
Click for the latest NOTAMs
NOTAMs are issued by the DoD/FAA and will open in a separate window not controlled by AirNav.

 

 
 

Would you like to see your business listed on this page?

 If your business provides an interesting product or service to pilots, flight crews, aircraft, or users of the Powwatka Ridge Airport, you should consider listing it here.  To start the listing process, click on the button below
 
Add a business
 

Other Pages about Powwatka Ridge Airport

Update a link
 
Copyright © AirNav, LLC. All rights reserved. Privacy Policy  Contact